Погода в Святогорске

Украина / Донецкая область     49°02′12″N   37°33′40″E
темп.,
°C
ветер,
м/с
пор.,
м/с
влажн.,
%
обл.,
%
осадки,
мм/ч
давл.,
гПа
погр.,
м
18 мая, ср
ср1800:00+8зюз4789100 0.4 1012132
03:00+8юз2291100 0.6 101024
06:00+9ююз1191100 0.6 101041
09:00+12ссз4472100 0.8 1010607
12:00+12ссв2355100 0.3 10111285
15:00+14всв2349100 0.3 10101630
18:00+14св344999 0.0 10101332
21:00+10ссз116497 0.0 101219
19 мая, чт
чт1900:00+9с257784 0.0 1013141
03:00+7ссз389094 0.0 1014207
06:00+8с41192100 0.4 1015427
09:00+13ссв7106733 0.7 10151064
12:00+16ссв8105096 0.5 10152043
15:00+15с61056100 0.5 10151254
18:00+15ссз51057100 0.0 1016619
21:00+12сз3764100 0.0 1017178
20 мая, пт
пт2000:00+10зсз3107878 0.1 1018272
03:00+9зсз368177 0.1 1018126
06:00+8зсз26835 0.0 1019182
09:00+15сз57605 0.0 1019873
12:00+18сз564597 0.1 10192259
15:00+16сз3555100 0.1 10181277
18:00+17зсз4657100 0.1 10171355
21:00+13зюз3671100 0.1 1017110
21 мая, сб
сб2100:00+12зюз41097100 1.5 1015332
03:00+12зюз51093100 1.8 1013320
06:00+12юз61589100 0.1 1010467
09:00+12зюз51489100 1.0 1008758
12:00+16зюз81384100 0.7 10061257
15:00+20зсз7116296 1.2 10051714
18:00+17сз797479 1.1 10061041
21:00+11св3496100 1.2 1008108
22 мая, вс
вс2200:00+10в2297100 0.0 100761
03:00+10в1296100 0.1 1007102
06:00+10в2397100 0.6 1004179
09:00+10в4798100 2.4 1002284
12:00+11в5797100 0.8 1002369
15:00+10в5796100 1.1 1001356
18:00+10св4495100 0.0 1002419
21:00+8св4796100 0.3 1003421